| time (UTC) | temp C | wind direction | speed KPH | gust KPH | rain 1hr cm | rain 24hr cm | rain mn cm | humidity % | barometer mb |
| 20260509110857 | 16 | 56 | 4.8 | 11.3 | 0.00 | 0.00 | 0.00 | ||
| 20260509110456 | 16 | 8 | 6.4 | 11.3 | 0.00 | 0.00 | 0.00 | ||
| 20260509110054 | 16 | 18 | 6.4 | 11.3 | 0.00 | 0.00 | 0.00 | ||
| 20260509105652 | 16 | 12 | 3.2 | 9.7 | 0.00 | 0.00 | 0.00 | ||
| 20260509105244 | 15 | 0 | 1.6 | 6.4 | 0.00 | 0.00 | 0.00 | ||
| 20260509104843 | 15 | 67 | 3.2 | 6.4 | 0.00 | 0.00 | 0.00 | ||
| 20260509104440 | 15 | 65 | 9.7 | 14.5 | 0.00 | 0.00 | 0.00 | ||
| 20260509104040 | 16 | 20 | 8.0 | 16.1 | 0.00 | 0.00 | 0.00 | ||
| 20260509103638 | 17 | 66 | 6.4 | 12.9 | 0.00 | 0.00 | 0.00 | ||
| 20260509103237 | 16 | 326 | 3.2 | 9.7 | 0.00 | 0.00 | 0.00 | ||
| 20260509102835 | 16 | 20 | 0.0 | 3.2 | 0.00 | 0.00 | 0.00 | ||
| 20260509102433 | 16 | 52 | 3.2 | 8.0 | 0.00 | 0.00 | 0.00 | ||
| 20260509102032 | 16 | 333 | 3.2 | 6.4 | 0.00 | 0.00 | 0.00 | ||
| 20260509101630 | 16 | 292 | 3.2 | 4.8 | 0.00 | 0.00 | 0.00 | ||
| 20260509101222 | 15 | 299 | 4.8 | 9.7 | 0.00 | 0.00 | 0.00 | ||
| 20260509100819 | 15 | 18 | 4.8 | 8.0 | 0.00 | 0.00 | 0.00 | ||
| 20260509100418 | 15 | 357 | 4.8 | 9.7 | 0.00 | 0.00 | 0.00 | ||
| 20260509100017 | 15 | 315 | 0.0 | 3.2 | 0.00 | 0.00 | 0.00 | ||
| 20260509095615 | 15 | 315 | 1.6 | 6.4 | 0.00 | 0.00 | 0.00 | ||
| 20260509095213 | 15 | 17 | 3.2 | 6.4 | 0.00 | 0.00 | 0.00 | ||
| 20260509094811 | 14 | 19 | 4.8 | 8.0 | 0.00 | 0.00 | 0.00 | ||
| 20260509094410 | 14 | 9 | 6.4 | 11.3 | 0.00 | 0.00 | 0.00 | ||
| 20260509094009 | 14 | 357 | 4.8 | 9.7 | 0.00 | 0.00 | 0.00 | ||
| 20260509093606 | 15 | 338 | 0.0 | 3.2 | 0.00 | 0.00 | 0.00 | ||
| 20260509093158 | 16 | 338 | 1.6 | 6.4 | 0.00 | 0.00 | 0.00 | ||
| 20260509092756 | 15 | 338 | 3.2 | 6.4 | 0.00 | 0.00 | 0.00 | ||
| 20260509092356 | 15 | 338 | 1.6 | 4.8 | 0.00 | 0.00 | 0.00 | ||
| 20260509091955 | 14 | 338 | 4.8 | 6.4 | 0.00 | 0.00 | 0.00 | ||
| 20260509091551 | 14 | 316 | 3.2 | 6.4 | 0.00 | 0.00 | 0.00 | ||
| 20260509091151 | 14 | 296 | 4.8 | 11.3 | 0.00 | 0.00 | 0.00 | ||
| 20260509090749 | 13 | 292 | 3.2 | 8.0 | 0.00 | 0.00 | 0.00 | ||
| 20260509090348 | 13 | 318 | 6.4 | 11.3 | 0.00 | 0.00 | 0.00 | ||
| 20260509085946 | 13 | 339 | 3.2 | 6.4 | 0.00 | 0.00 | 0.00 | ||
| 20260509085544 | 13 | 340 | 4.8 | 11.3 | 0.00 | 0.00 | 0.00 | ||
| 20260509085136 | 13 | 330 | 3.2 | 9.7 | 0.00 | 0.00 | 0.00 | ||
| 20260509084734 | 13 | 302 | 4.8 | 9.7 | 0.00 | 0.00 | 0.00 | ||
| 20260509084332 | 13 | 315 | 4.8 | 8.0 | 0.00 | 0.00 | 0.00 | ||
| 20260509083931 | 13 | 339 | 6.4 | 14.5 | 0.00 | 0.00 | 0.00 | ||
| 20260509083529 | 13 | 338 | 3.2 | 6.4 | 0.00 | 0.00 | 0.00 | ||
| 20260509083128 | 13 | 296 | 3.2 | 6.4 | 0.00 | 0.00 | 0.00 | ||
| 20260509082725 | 15 | 338 | 1.6 | 6.4 | 0.00 | 0.00 | 0.00 | ||
| 20260509082324 | 13 | 354 | 6.4 | 11.3 | 0.00 | 0.00 | 0.00 | ||
| 20260509081923 | 13 | 344 | 4.8 | 9.7 | 0.00 | 0.00 | 0.00 | ||
| 20260509081521 | 13 | 9 | 3.2 | 8.0 | 0.00 | 0.00 | 0.00 | ||
| 20260509081113 | 13 | 316 | 4.8 | 9.7 | 0.00 | 0.00 | 0.00 | ||
| 20260509080309 | 14 | 340 | 3.2 | 6.4 | 0.00 | 0.00 | 0.00 | ||
| 20260509075908 | 13 | 0 | 1.6 | 6.4 | 0.00 | 0.00 | 0.00 | ||
| 20260509075506 | 13 | 12 | 3.2 | 8.0 | 0.00 | 0.00 | 0.00 | ||
| 20260509075103 | 13 | 354 | 6.4 | 11.3 | 0.00 | 0.00 | 0.00 | ||
| 20260509074701 | 13 | 357 | 3.2 | 6.4 | 0.00 | 0.00 | 0.00 | ||
| 20260509074300 | 12 | 339 | 6.4 | 11.3 | 0.00 | 0.00 | 0.00 | ||
| 20260509073859 | 14 | 25 | 3.2 | 6.4 | 0.00 | 0.00 | 0.00 | ||
| 20260509073456 | 13 | 16 | 8.0 | 14.5 | 0.00 | 0.00 | 0.00 | ||
| 20260509073048 | 13 | 20 | 6.4 | 12.9 | 0.00 | 0.00 | 0.00 | ||
| 20260509072646 | 13 | 15 | 6.4 | 11.3 | 0.00 | 0.00 | 0.00 | ||
| 20260509072245 | 13 | 58 | 11.3 | 14.5 | 0.00 | 0.00 | 0.00 | ||
| 20260509071843 | 13 | 27 | 11.3 | 14.5 | 0.00 | 0.00 | 0.00 | ||
| 20260509071441 | 13 | 27 | 6.4 | 14.5 | 0.00 | 0.00 | 0.00 | ||
| 20260509071040 | 13 | 356 | 3.2 | 6.4 | 0.00 | 0.00 | 0.00 | ||
| 20260509070637 | 12 | 28 | 4.8 | 9.7 | 0.00 | 0.00 | 0.00 | ||
| 20260509070236 | 12 | 12 | 6.4 | 12.9 | 0.00 | 0.00 | 0.00 | ||
| 20260509065834 | 12 | 334 | 6.4 | 11.3 | 0.00 | 0.00 | 0.00 | ||
| 20260509065432 | 12 | 345 | 6.4 | 8.0 | 0.00 | 0.00 | 0.00 | ||
| 20260509065024 | 12 | 351 | 4.8 | 11.3 | 0.00 | 0.00 | 0.00 | ||
| 20260509064623 | 13 | 343 | 3.2 | 8.0 | 0.00 | 0.00 | 0.00 | ||
| 20260509064220 | 12 | 23 | 6.4 | 12.9 | 0.00 | 0.00 | 0.00 | ||
| 20260509063820 | 12 | 42 | 9.7 | 14.5 | 0.00 | 0.00 | 0.00 | ||
| 20260509063418 | 13 | 16 | 3.2 | 6.4 | 0.00 | 0.00 | 0.00 | ||
| 20260509063017 | 13 | 356 | 1.6 | 6.4 | 0.00 | 0.00 | 0.00 | ||
| 20260509062614 | 12 | 347 | 3.2 | 6.4 | 0.00 | 0.00 | 0.00 | ||
| 20260509062213 | 12 | 29 | 8.0 | 9.7 | 0.00 | 0.00 | 0.00 | ||
| 20260509061812 | 12 | 0 | 1.6 | 8.0 | 0.00 | 0.00 | 0.00 | ||
| 20260509061410 | 12 | 34 | 8.0 | 11.3 | 0.00 | 0.00 | 0.00 | ||
| 20260509061001 | 12 | 36 | 12.9 | 17.7 | 0.00 | 0.00 | 0.00 | ||
| 20260509060559 | 12 | 51 | 8.0 | 12.9 | 0.00 | 0.00 | 0.00 | ||
| 20260509060158 | 12 | 13 | 6.4 | 11.3 | 0.00 | 0.00 | 0.00 | ||
| 20260509055757 | 11 | 40 | 11.3 | 14.5 | 0.00 | 0.00 | 0.00 | ||
| 20260509055355 | 12 | 1 | 4.8 | 12.9 | 0.00 | 0.00 | 0.00 | ||
| 20260509054953 | 11 | 17 | 6.4 | 11.3 | 0.00 | 0.00 | 0.00 | ||
| 20260509054551 | 11 | 31 | 6.4 | 11.3 | 0.00 | 0.00 | 0.00 | ||
| 20260509054150 | 11 | 45 | 6.4 | 11.3 | 0.00 | 0.00 | 0.00 | ||
| 20260509053749 | 12 | 26 | 1.6 | 8.0 | 0.00 | 0.00 | 0.00 | ||
| 20260509053346 | 11 | 21 | 1.6 | 4.8 | 0.00 | 0.00 | 0.00 | ||
| 20260509052938 | 11 | 26 | 1.6 | 4.8 | 0.00 | 0.00 | 0.00 | ||
| 20260509052536 | 11 | 28 | 3.2 | 6.4 | 0.00 | 0.00 | 0.00 | ||
| 20260509052136 | 11 | 41 | 8.0 | 11.3 | 0.00 | 0.00 | 0.00 | ||
| 20260509051734 | 11 | 37 | 6.4 | 8.0 | 0.00 | 0.00 | 0.00 | ||
| 20260509051332 | 11 | 41 | 6.4 | 9.7 | 0.00 | 0.00 | 0.00 | ||
| 20260509050930 | 11 | 67 | 3.2 | 6.4 | 0.00 | 0.00 | 0.00 | ||
| 20260509050528 | 11 | 67 | 0.0 | 0.0 | 0.00 | 0.00 | 0.00 | ||
| 20260509050126 | 11 | 67 | 3.2 | 6.4 | 0.00 | 0.00 | 0.00 | ||
| 20260509045725 | 11 | 67 | 1.6 | 3.2 | 0.00 | 0.00 | 0.00 | ||
| 20260509045323 | 11 | 67 | 0.0 | 3.2 | 0.00 | 0.00 | 0.00 | ||
| 20260509044916 | 11 | 67 | 0.0 | 1.6 | 0.00 | 0.00 | 0.00 | ||
| 20260509044514 | 11 | 67 | 0.0 | 0.0 | 0.00 | 0.00 | 0.00 | ||
| 20260509044112 | 11 | 67 | 0.0 | 0.0 | 0.00 | 0.00 | 0.00 | ||
| 20260509043711 | 11 | 67 | 0.0 | 3.2 | 0.00 | 0.00 | 0.00 | ||
| 20260509043309 | 11 | 67 | 0.0 | 3.2 | 0.00 | 0.00 | 0.00 | ||
| 20260509042908 | 11 | 67 | 0.0 | 0.0 | 0.00 | 0.00 | 0.00 | ||
| 20260509042505 | 11 | 67 | 0.0 | 3.2 | 0.00 | 0.00 | 0.00 | ||
| 20260509042104 | 11 | 67 | 0.0 | 0.0 | 0.00 | 0.00 | 0.00 | ||
| 20260509041703 | 11 | 67 | 0.0 | 0.0 | 0.00 | 0.00 | 0.00 | ||
| 20260509041301 | 10 | 67 | 0.0 | 3.2 | 0.00 | 0.00 | 0.00 | ||
| 20260509040852 | 10 | 67 | 1.6 | 6.4 | 0.00 | 0.00 | 0.00 | ||
| 20260509040450 | 10 | 67 | 0.0 | 0.0 | 0.00 | 0.00 | 0.00 | ||
| 20260509040049 | 10 | 67 | 1.6 | 4.8 | 0.00 | 0.00 | 0.00 | ||
| 20260509035648 | 10 | 81 | 3.2 | 4.8 | 0.00 | 0.00 | 0.00 | ||
| 20260509035245 | 10 | 90 | 1.6 | 3.2 | 0.00 | 0.00 | 0.00 | ||
| 20260509034844 | 10 | 90 | 1.6 | 4.8 | 0.00 | 0.00 | 0.00 | ||
| 20260509034041 | 10 | 90 | 1.6 | 4.8 | 0.00 | 0.00 | 0.00 | ||
| 20260509033640 | 10 | 90 | 1.6 | 3.2 | 0.00 | 0.00 | 0.00 | ||
| 20260509033237 | 10 | 90 | 1.6 | 3.2 | 0.00 | 0.00 | 0.00 | ||
| 20260509032829 | 10 | 90 | 0.0 | 0.0 | 0.00 | 0.00 | 0.00 | ||
| 20260509032428 | 10 | 90 | 1.6 | 3.2 | 0.00 | 0.00 | 0.00 | ||
| 20260509032027 | 10 | 90 | 1.6 | 4.8 | 0.00 | 0.00 | 0.00 | ||
| 20260509031624 | 10 | 90 | 1.6 | 3.2 | 0.00 | 0.00 | 0.00 | ||
| 20260509031223 | 10 | 90 | 1.6 | 6.4 | 0.00 | 0.00 | 0.00 | ||
| 20260509030822 | 10 | 90 | 0.0 | 3.2 | 0.00 | 0.00 | 0.00 | ||
| 20260509030420 | 10 | 90 | 0.0 | 0.0 | 0.00 | 0.00 | 0.00 | ||
| 20260509030018 | 10 | 90 | 4.8 | 6.4 | 0.00 | 0.00 | 0.00 | ||
| 20260509025617 | 10 | 90 | 4.8 | 6.4 | 0.00 | 0.00 | 0.00 | ||
| 20260509025215 | 10 | 90 | 3.2 | 6.4 | 0.00 | 0.00 | 0.00 | ||
| 20260509024807 | 10 | 55 | 3.2 | 6.4 | 0.00 | 0.00 | 0.00 | ||
| 20260509024404 | 10 | 45 | 3.2 | 6.4 | 0.00 | 0.00 | 0.00 | ||
| 20260509024003 | 10 | 45 | 3.2 | 6.4 | 0.00 | 0.00 | 0.00 | ||
| 20260509023602 | 10 | 45 | 3.2 | 6.4 | 0.00 | 0.00 | 0.00 | ||
| 20260509023200 | 10 | 22 | 3.2 | 6.4 | 0.00 | 0.00 | 0.00 | ||
| 20260509022759 | 10 | 0 | 0.0 | 3.2 | 0.00 | 0.00 | 0.00 | ||
| 20260509022356 | 10 | 0 | 1.6 | 3.2 | 0.00 | 0.00 | 0.00 | ||
| 20260509021955 | 10 | 0 | 1.6 | 4.8 | 0.00 | 0.00 | 0.00 | ||
| 20260509021554 | 10 | 0 | 0.0 | 3.2 | 0.00 | 0.00 | 0.00 | ||
| 20260509021152 | 11 | 0 | 0.0 | 0.0 | 0.00 | 0.00 | 0.00 | ||
| 20260509020743 | 11 | 0 | 0.0 | 3.2 | 0.00 | 0.00 | 0.00 | ||
| 20260509020341 | 11 | 0 | 0.0 | 3.2 | 0.00 | 0.00 | 0.00 | ||
| 20260509015539 | 11 | 0 | 0.0 | 3.2 | 0.00 | 0.00 | 0.00 | ||
| 20260509015136 | 10 | 0 | 0.0 | 1.6 | 0.00 | 0.00 | 0.00 | ||
| 20260509014735 | 10 | 0 | 0.0 | 3.2 | 0.00 | 0.00 | 0.00 | ||
| 20260509014334 | 11 | 0 | 0.0 | 1.6 | 0.00 | 0.00 | 0.00 | ||
| 20260509013933 | 11 | 21 | 0.0 | 3.2 | 0.00 | 0.00 | 0.00 | ||
| 20260509013530 | 10 | 0 | 3.2 | 4.8 | 0.00 | 0.00 | 0.00 | ||
| 20260509013129 | 10 | 0 | 1.6 | 3.2 | 0.00 | 0.00 | 0.00 | ||
| 20260509012721 | 10 | 5 | 4.8 | 6.4 | 0.00 | 0.00 | 0.00 | ||
| 20260509012319 | 11 | 0 | 1.6 | 4.8 | 0.00 | 0.00 | 0.00 | ||
| 20260509011918 | 10 | 1 | 1.6 | 4.8 | 0.00 | 0.00 | 0.00 | ||
| 20260509011516 | 10 | 16 | 3.2 | 9.7 | 0.00 | 0.00 | 0.00 | ||
| 20260509011114 | 11 | 0 | 0.0 | 1.6 | 0.00 | 0.00 | 0.00 | ||
| 20260509010713 | 11 | 0 | 1.6 | 3.2 | 0.00 | 0.00 | 0.00 | ||
| 20260509010311 | 10 | 0 | 3.2 | 4.8 | 0.00 | 0.00 | 0.00 | ||
| 20260509005909 | 11 | 355 | 3.2 | 8.0 | 0.00 | 0.00 | 0.00 | ||
| 20260509005508 | 10 | 0 | 1.6 | 6.4 | 0.00 | 0.00 | 0.00 | ||
| 20260509005106 | 10 | 4 | 4.8 | 9.7 | 0.00 | 0.00 | 0.00 | ||
| 20260509004658 | 10 | 6 | 3.2 | 9.7 | 0.00 | 0.00 | 0.00 | ||
| 20260509004255 | 10 | 359 | 3.2 | 6.4 | 0.00 | 0.00 | 0.00 | ||
| 20260509003854 | 11 | 0 | 4.8 | 11.3 | 0.00 | 0.00 | 0.00 | ||
| 20260509003453 | 10 | 353 | 4.8 | 9.7 | 0.00 | 0.00 | 0.00 | ||
| 20260509003051 | 10 | 7 | 4.8 | 8.0 | 0.00 | 0.00 | 0.00 | ||
| 20260509002649 | 11 | 356 | 4.8 | 11.3 | 0.00 | 0.00 | 0.00 | ||
| 20260509002247 | 11 | 2 | 1.6 | 6.4 | 0.00 | 0.00 | 0.00 | ||
| 20260509001846 | 11 | 2 | 3.2 | 9.7 | 0.00 | 0.00 | 0.00 | ||
| 20260509001445 | 11 | 21 | 1.6 | 3.2 | 0.00 | 0.00 | 0.00 | ||
| 20260509001044 | 11 | 1 | 4.8 | 6.4 | 0.00 | 0.00 | 0.00 | ||
| 20260509000634 | 11 | 359 | 3.2 | 8.0 | 0.00 | 0.00 | 0.00 | ||
| 20260509000233 | 11 | 8 | 6.4 | 12.9 | 0.00 | 0.00 | 0.00 | ||
| 20260508235831 | 11 | 0 | 4.8 | 12.9 | 0.00 | 0.00 | 0.00 | ||
| 20260508235430 | 11 | 2 | 6.4 | 9.7 | 0.00 | 0.00 | 0.00 | ||
| 20260508235026 | 11 | 2 | 6.4 | 11.3 | 0.00 | 0.00 | 0.00 | ||
| 20260508234625 | 11 | 12 | 4.8 | 9.7 | 0.00 | 0.00 | 0.00 | ||
| 20260508234223 | 11 | 18 | 6.4 | 12.9 | 0.00 | 0.00 | 0.00 | ||
| 20260508233822 | 11 | 18 | 6.4 | 12.9 | 0.00 | 0.00 | 0.00 | ||
| 20260508233420 | 11 | 11 | 3.2 | 8.0 | 0.00 | 0.00 | 0.00 | ||
| 20260508233018 | 11 | 0 | 4.8 | 8.0 | 0.00 | 0.00 | 0.00 | ||
| 20260508232610 | 11 | 358 | 3.2 | 6.4 | 0.00 | 0.00 | 0.00 | ||
| 20260508232208 | 11 | 356 | 3.2 | 8.0 | 0.00 | 0.00 | 0.00 | ||
| 20260508231806 | 11 | 345 | 3.2 | 8.0 | 0.00 | 0.00 | 0.00 | ||
| 20260508231405 | 11 | 357 | 4.8 | 9.7 | 0.00 | 0.00 | 0.00 | ||
| 20260508231003 | 11 | 0 | 4.8 | 11.3 | 0.00 | 0.00 | 0.00 | ||
| 20260508230602 | 11 | 355 | 4.8 | 9.7 | 0.00 | 0.00 | 0.00 | ||
| 20260508230200 | 11 | 358 | 4.8 | 8.0 | 0.00 | 0.00 | 0.00 | ||
| 20260508225758 | 11 | 353 | 3.2 | 8.0 | 0.00 | 0.00 | 0.00 | ||
| 20260508225357 | 11 | 2 | 4.8 | 9.7 | 0.00 | 0.00 | 0.00 | ||
| 20260508224955 | 11 | 0 | 3.2 | 8.0 | 0.00 | 0.00 | 0.00 | ||
| 20260508224547 | 11 | 7 | 4.8 | 8.0 | 0.00 | 0.00 | 0.00 | ||
| 20260508224144 | 11 | 4 | 6.4 | 12.9 | 0.00 | 0.00 | 0.00 | ||
| 20260508223743 | 11 | 16 | 3.2 | 9.7 | 0.00 | 0.00 | 0.00 | ||
| 20260508223342 | 11 | 346 | 1.6 | 6.4 | 0.00 | 0.00 | 0.00 | ||
| 20260508222941 | 11 | 7 | 4.8 | 9.7 | 0.00 | 0.00 | 0.00 | ||
| 20260508222538 | 11 | 14 | 4.8 | 9.7 | 0.00 | 0.00 | 0.00 | ||
| 20260508222136 | 11 | 5 | 4.8 | 8.0 | 0.00 | 0.00 | 0.00 | ||
| 20260508221735 | 11 | 2 | 3.2 | 8.0 | 0.00 | 0.00 | 0.00 | ||
| 20260508220931 | 12 | 1 | 4.8 | 11.3 | 0.00 | 0.00 | 0.00 | ||
| 20260508220523 | 12 | 0 | 1.6 | 6.4 | 0.00 | 0.00 | 0.00 | ||
| 20260508220121 | 12 | 0 | 0.0 | 3.2 | 0.00 | 0.00 | 0.00 | ||
| 20260508215720 | 12 | 0 | 1.6 | 3.2 | 0.00 | 0.00 | 0.00 | ||
| 20260508215319 | 12 | 0 | 1.6 | 4.8 | 0.00 | 0.00 | 0.00 | ||
| 20260508214916 | 12 | 0 | 0.0 | 3.2 | 0.00 | 0.00 | 0.00 | ||
| 20260508214515 | 12 | 0 | 0.0 | 1.6 | 0.00 | 0.00 | 0.00 | ||
| 20260508214114 | 12 | 0 | 0.0 | 3.2 | 0.00 | 0.00 | 0.00 | ||
| 20260508213713 | 12 | 0 | 0.0 | 0.0 | 0.00 | 0.00 | 0.00 | ||
| 20260508213310 | 12 | 0 | 0.0 | 0.0 | 0.00 | 0.00 | 0.00 | ||
| 20260508212909 | 12 | 0 | 0.0 | 1.6 | 0.00 | 0.00 | 0.00 | ||
| 20260508212501 | 12 | 0 | 1.6 | 4.8 | 0.00 | 0.00 | 0.00 | ||
| 20260508212059 | 12 | 2 | 3.2 | 6.4 | 0.00 | 0.00 | 0.00 | ||
| 20260508211657 | 12 | 21 | 3.2 | 4.8 | 0.00 | 0.00 | 0.00 | ||
| 20260508211256 | 12 | 21 | 3.2 | 4.8 | 0.00 | 0.00 | 0.00 | ||
| 20260508210854 | 12 | 21 | 1.6 | 4.8 | 0.00 | 0.00 | 0.00 | ||
| 20260508210453 | 12 | 21 | 1.6 | 3.2 | 0.00 | 0.00 | 0.00 | ||
| 20260508210050 | 12 | 21 | 3.2 | 4.8 | 0.00 | 0.00 | 0.00 | ||
| 20260508205248 | 12 | 21 | 1.6 | 3.2 | 0.00 | 0.00 | 0.00 | ||
| 20260508204846 | 12 | 21 | 3.2 | 3.2 | 0.00 | 0.00 | 0.00 | ||
| 20260508204438 | 12 | 34 | 4.8 | 6.4 | 0.00 | 0.00 | 0.00 | ||
| 20260508204035 | 12 | 45 | 3.2 | 6.4 | 0.00 | 0.00 | 0.00 | ||
| 20260508203634 | 12 | 45 | 3.2 | 8.0 | 0.00 | 0.00 | 0.00 | ||
| 20260508203233 | 12 | 45 | 1.6 | 4.8 | 0.00 | 0.00 | 0.00 | ||
| 20260508202831 | 12 | 45 | 1.6 | 3.2 | 0.00 | 0.00 | 0.00 | ||
| 20260508202429 | 12 | 45 | 1.6 | 4.8 | 0.00 | 0.00 | 0.00 | ||
| 20260508202027 | 12 | 45 | 1.6 | 3.2 | 0.00 | 0.00 | 0.00 | ||
| 20260508201626 | 12 | 45 | 1.6 | 3.2 | 0.00 | 0.00 | 0.00 | ||
| 20260508201225 | 12 | 45 | 0.0 | 1.6 | 0.00 | 0.00 | 0.00 | ||
| 20260508200822 | 12 | 45 | 0.0 | 0.0 | 0.00 | 0.00 | 0.00 | ||
| 20260508200414 | 12 | 45 | 1.6 | 3.2 | 0.00 | 0.00 | 0.00 | ||
| 20260508200012 | 12 | 45 | 0.0 | 0.0 | 0.00 | 0.00 | 0.00 | ||
| 20260508195611 | 12 | 45 | 3.2 | 6.4 | 0.00 | 0.00 | 0.00 | ||
| 20260508195209 | 12 | 45 | 0.0 | 0.0 | 0.00 | 0.00 | 0.00 | ||
| 20260508194807 | 12 | 45 | 0.0 | 0.0 | 0.00 | 0.00 | 0.00 | ||
| 20260508194406 | 12 | 45 | 0.0 | 3.2 | 0.00 | 0.00 | 0.00 | ||
| 20260508194004 | 12 | 45 | 1.6 | 4.8 | 0.00 | 0.00 | 0.00 | ||
| 20260508193603 | 12 | 45 | 3.2 | 6.4 | 0.00 | 0.00 | 0.00 | ||
| 20260508192759 | 12 | 45 | 1.6 | 6.4 | 0.00 | 0.00 | 0.00 | ||
| 20260508192351 | 12 | 45 | 1.6 | 4.8 | 0.00 | 0.00 | 0.00 | ||
| 20260508191949 | 12 | 31 | 3.2 | 8.0 | 0.00 | 0.00 | 0.00 | ||
| 20260508191146 | 12 | 21 | 4.8 | 8.0 | 0.00 | 0.00 | 0.00 | ||
| 20260508190744 | 12 | 14 | 4.8 | 6.4 | 0.00 | 0.00 | 0.00 | ||
| 20260508190343 | 12 | 0 | 3.2 | 8.0 | 0.00 | 0.00 | 0.00 | ||
| 20260508185940 | 12 | 0 | 1.6 | 6.4 | 0.00 | 0.00 | 0.00 | ||
| 20260508185539 | 12 | 0 | 3.2 | 6.4 | 0.00 | 0.00 | 0.00 | ||
| 20260508185138 | 12 | 14 | 1.6 | 6.4 | 0.00 | 0.00 | 0.00 | ||
| 20260508184736 | 12 | 13 | 3.2 | 6.4 | 0.00 | 0.00 | 0.00 | ||
| 20260508184327 | 12 | 10 | 3.2 | 6.4 | 0.00 | 0.00 | 0.00 | ||
| 20260508183925 | 12 | 0 | 0.0 | 0.0 | 0.00 | 0.00 | 0.00 | ||
| 20260508183524 | 12 | 0 | 3.2 | 6.4 | 0.00 | 0.00 | 0.00 | ||
| 20260508183123 | 12 | 21 | 1.6 | 4.8 | 0.00 | 0.00 | 0.00 | ||
| 20260508182721 | 12 | 21 | 1.6 | 4.8 | 0.00 | 0.00 | 0.00 | ||
| 20260508182319 | 12 | 41 | 6.4 | 9.7 | 0.00 | 0.00 | 0.00 | ||
| 20260508181917 | 12 | 45 | 1.6 | 4.8 | 0.00 | 0.00 | 0.00 | ||
| 20260508181516 | 12 | 45 | 0.0 | 0.0 | 0.00 | 0.00 | 0.00 | ||
| 20260508181115 | 12 | 45 | 1.6 | 6.4 | 0.00 | 0.00 | 0.00 | ||
| 20260508180712 | 12 | 45 | 1.6 | 6.4 | 0.00 | 0.00 | 0.00 | ||
| 20260508180304 | 13 | 45 | 3.2 | 6.4 | 0.00 | 0.00 | 0.00 | ||
| 20260508175902 | 13 | 45 | 4.8 | 6.4 | 0.00 | 0.00 | 0.00 | ||
| 20260508175501 | 13 | 67 | 1.6 | 6.4 | 0.00 | 0.00 | 0.00 | ||
| 20260508175059 | 12 | 67 | 3.2 | 6.4 | 0.00 | 0.00 | 0.00 | ||
| 20260508174658 | 12 | 67 | 3.2 | 8.0 | 0.00 | 0.00 | 0.00 | ||
| 20260508174257 | 13 | 67 | 3.2 | 6.4 | 0.00 | 0.00 | 0.00 | ||
| 20260508173855 | 13 | 64 | 1.6 | 4.8 | 0.00 | 0.00 | 0.00 | ||
| 20260508173453 | 13 | 45 | 6.4 | 9.7 | 0.00 | 0.00 | 0.00 | ||
| 20260508173052 | 13 | 45 | 4.8 | 9.7 | 0.00 | 0.00 | 0.00 | ||
| 20260508172650 | 13 | 45 | 3.2 | 8.0 | 0.00 | 0.00 | 0.00 | ||
| 20260508172242 | 13 | 45 | 3.2 | 8.0 | 0.00 | 0.00 | 0.00 | ||
| 20260508171840 | 13 | 45 | 8.0 | 11.3 | 0.00 | 0.00 | 0.00 | ||
| 20260508171438 | 13 | 45 | 3.2 | 4.8 | 0.00 | 0.00 | 0.00 | ||
| 20260508171037 | 13 | 45 | 1.6 | 3.2 | 0.00 | 0.00 | 0.00 | ||
| 20260508170635 | 13 | 45 | 4.8 | 8.0 | 0.00 | 0.00 | 0.00 | ||
| 20260508170234 | 13 | 18 | 3.2 | 8.0 | 0.00 | 0.00 | 0.00 | ||
| 20260508165831 | 13 | 18 | 6.4 | 9.7 | 0.00 | 0.00 | 0.00 | ||
| 20260508165430 | 13 | 16 | 6.4 | 12.9 | 0.00 | 0.00 | 0.00 | ||
| 20260508165029 | 13 | 24 | 8.0 | 11.3 | 0.00 | 0.00 | 0.00 | ||
| 20260508164627 | 13 | 13 | 4.8 | 11.3 | 0.00 | 0.00 | 0.00 | ||
| 20260508164218 | 13 | 41 | 3.2 | 8.0 | 0.00 | 0.00 | 0.00 | ||
| 20260508163816 | 13 | 12 | 4.8 | 14.5 | 0.00 | 0.00 | 0.00 | ||
| 20260508163415 | 13 | 19 | 9.7 | 14.5 | 0.00 | 0.00 | 0.00 | ||
| 20260508163014 | 13 | 19 | 9.7 | 16.1 | 0.00 | 0.00 | 0.00 | ||
| 20260508162610 | 13 | 1 | 8.0 | 12.9 | 0.00 | 0.00 | 0.00 | ||
| 20260508162209 | 14 | 3 | 6.4 | 12.9 | 0.00 | 0.00 | 0.00 | ||
| 20260508161806 | 14 | 8 | 4.8 | 11.3 | 0.00 | 0.00 | 0.00 | ||
| 20260508161405 | 14 | 350 | 4.8 | 8.0 | 0.00 | 0.00 | 0.00 | ||
| 20260508161004 | 14 | 2 | 4.8 | 11.3 | 0.00 | 0.00 | 0.00 | ||
| 20260508160601 | 14 | 343 | 6.4 | 11.3 | 0.00 | 0.00 | 0.00 | ||
| 20260508160153 | 14 | 14 | 3.2 | 11.3 | 0.00 | 0.00 | 0.00 | ||
| 20260508155752 | 14 | 21 | 4.8 | 9.7 | 0.00 | 0.00 | 0.00 | ||
| 20260508155351 | 14 | 24 | 6.4 | 12.9 | 0.00 | 0.00 | 0.00 | ||
| 20260508154948 | 13 | 28 | 8.0 | 12.9 | 0.00 | 0.00 | 0.00 | ||
| 20260508154547 | 14 | 16 | 6.4 | 14.5 | 0.00 | 0.00 | 0.00 | ||
| 20260508154146 | 14 | 25 | 8.0 | 12.9 | 0.00 | 0.00 | 0.00 | ||
| 20260508153744 | 14 | 24 | 8.0 | 14.5 | 0.00 | 0.00 | 0.00 | ||
| 20260508153342 | 14 | 30 | 4.8 | 9.7 | 0.00 | 0.00 | 0.00 | ||
| 20260508152539 | 15 | 30 | 8.0 | 16.1 | 0.00 | 0.00 | 0.00 | ||
| 20260508152131 | 15 | 24 | 8.0 | 17.7 | 0.00 | 0.00 | 0.00 | ||
| 20260508151728 | 15 | 36 | 4.8 | 9.7 | 0.00 | 0.00 | 0.00 | ||
| 20260508151327 | 15 | 32 | 8.0 | 12.9 | 0.00 | 0.00 | 0.00 | ||
| 20260508150926 | 15 | 30 | 9.7 | 16.1 | 0.00 | 0.00 | 0.00 | ||
| 20260508150524 | 15 | 24 | 8.0 | 14.5 | 0.00 | 0.00 | 0.00 | ||
| 20260508150123 | 15 | 1 | 8.0 | 11.3 | 0.00 | 0.00 | 0.00 | ||
| 20260508145720 | 15 | 29 | 8.0 | 16.1 | 0.00 | 0.00 | 0.00 | ||
| 20260508145319 | 15 | 21 | 11.3 | 14.5 | 0.00 | 0.00 | 0.00 | ||
| 20260508144918 | 16 | 16 | 6.4 | 11.3 | 0.00 | 0.00 | 0.00 | ||
| 20260508144516 | 16 | 341 | 6.4 | 14.5 | 0.00 | 0.00 | 0.00 | ||
| 20260508144107 | 15 | 0 | 8.0 | 12.9 | 0.00 | 0.00 | 0.00 | ||
| 20260508143705 | 16 | 354 | 6.4 | 8.0 | 0.00 | 0.00 | 0.00 | ||
| 20260508143304 | 16 | 343 | 6.4 | 12.9 | 0.00 | 0.00 | 0.00 | ||
| 20260508142903 | 15 | 359 | 6.4 | 14.5 | 0.00 | 0.00 | 0.00 | ||
| 20260508142500 | 15 | 338 | 6.4 | 14.5 | 0.00 | 0.00 | 0.00 | ||
| 20260508142100 | 15 | 326 | 8.0 | 14.5 | 0.00 | 0.00 | 0.00 | ||
| 20260508141658 | 15 | 356 | 3.2 | 6.4 | 0.00 | 0.00 | 0.00 | ||
| 20260508141257 | 15 | 348 | 4.8 | 8.0 | 0.00 | 0.00 | 0.00 | ||
| 20260508140855 | 15 | 339 | 3.2 | 6.4 | 0.00 | 0.00 | 0.00 | ||
| 20260508140453 | 15 | 312 | 4.8 | 8.0 | 0.00 | 0.00 | 0.00 | ||
| 20260508140045 | 15 | 0 | 4.8 | 8.0 | 0.00 | 0.00 | 0.00 | ||
| 20260508135643 | 16 | 338 | 3.2 | 6.4 | 0.00 | 0.00 | 0.00 | ||
| 20260508135242 | 16 | 329 | 3.2 | 6.4 | 0.00 | 0.00 | 0.00 | ||
| 20260508134840 | 16 | 347 | 3.2 | 6.4 | 0.00 | 0.00 | 0.00 | ||
| 20260508134438 | 16 | 8 | 6.4 | 12.9 | 0.00 | 0.00 | 0.00 | ||
| 20260508134037 | 16 | 351 | 6.4 | 12.9 | 0.00 | 0.00 | 0.00 | ||
| 20260508133635 | 16 | 7 | 4.8 | 9.7 | 0.00 | 0.00 | 0.00 | ||
| 20260508133233 | 16 | 4 | 6.4 | 9.7 | 0.00 | 0.00 | 0.00 | ||
| 20260508132832 | 16 | 4 | 3.2 | 8.0 | 0.00 | 0.00 | 0.00 | ||
| 20260508132430 | 16 | 340 | 3.2 | 6.4 | 0.00 | 0.00 | 0.00 | ||
| 20260508132022 | 15 | 8 | 4.8 | 9.7 | 0.00 | 0.00 | 0.00 | ||
| 20260508131619 | 15 | 354 | 1.6 | 4.8 | 0.00 | 0.00 | 0.00 | ||
| 20260508131218 | 16 | 338 | 0.0 | 3.2 | 0.00 | 0.00 | 0.00 | ||
| 20260508130817 | 15 | 338 | 1.6 | 3.2 | 0.00 | 0.00 | 0.00 | ||
| 20260508130415 | 15 | 332 | 3.2 | 6.4 | 0.00 | 0.00 | 0.00 | ||
| 20260508130013 | 15 | 353 | 3.2 | 8.0 | 0.00 | 0.00 | 0.00 | ||
| 20260508125611 | 15 | 352 | 4.8 | 6.4 | 0.00 | 0.00 | 0.00 | ||
| 20260508125210 | 15 | 339 | 3.2 | 6.4 | 0.00 | 0.00 | 0.00 | ||
| 20260508124809 | 15 | 323 | 3.2 | 9.7 | 0.00 | 0.00 | 0.00 | ||
| 20260508124407 | 15 | 293 | 3.2 | 9.7 | 0.00 | 0.00 | 0.00 | ||
| 20260508123958 | 15 | 340 | 1.6 | 8.0 | 0.00 | 0.00 | 0.00 | ||
| 20260508123556 | 15 | 0 | 1.6 | 4.8 | 0.00 | 0.00 | 0.00 | ||
| 20260508123155 | 13 | 0 | 3.2 | 6.4 | 0.00 | 0.00 | 0.00 | ||
| 20260508122754 | 13 | 344 | 3.2 | 8.0 | 0.00 | 0.00 | 0.00 | ||
| 20260508122351 | 15 | 3 | 3.2 | 8.0 | 0.00 | 0.00 | 0.00 | ||
| 20260508121950 | 14 | 353 | 3.2 | 9.7 | 0.00 | 0.00 | 0.00 | ||
| 20260508121548 | 13 | 292 | 3.2 | 6.4 | 0.00 | 0.00 | 0.00 | ||
| 20260508121147 | 14 | 292 | 3.2 | 6.4 | 0.00 | 0.00 | 0.00 | ||
| 20260508120342 | 13 | 319 | 3.2 | 6.4 | 0.00 | 0.00 | 0.00 | ||
| 20260508115935 | 13 | 338 | 3.2 | 6.4 | 0.00 | 0.00 | 0.00 | ||
| 20260508115532 | 13 | 295 | 3.2 | 6.4 | 0.00 | 0.00 | 0.00 | ||
| 20260508115130 | 13 | 303 | 6.4 | 9.7 | 0.00 | 0.00 | 0.00 | ||
| 20260508114729 | 13 | 333 | 4.8 | 9.7 | 0.00 | 0.00 | 0.00 | ||
| 20260508114327 | 13 | 338 | 3.2 | 6.4 | 0.00 | 0.00 | 0.00 | ||
| 20260508113926 | 13 | 315 | 3.2 | 6.4 | 0.00 | 0.00 | 0.00 | ||
| 20260508113524 | 13 | 318 | 3.2 | 6.4 | 0.00 | 0.00 | 0.00 | ||
| 20260508113122 | 13 | 334 | 4.8 | 8.0 | 0.00 | 0.00 | 0.00 | ||
| 20260508112721 | 13 | 331 | 4.8 | 11.3 | 0.00 | 0.00 | 0.00 | ||
| 20260508112319 | 13 | 309 | 4.8 | 9.7 | 0.00 | 0.00 | 0.00 | ||
| 20260508111508 | 13 | 303 | 6.4 | 11.3 | 0.00 | 0.00 | 0.00 | ||
| 20260508111107 | 13 | 333 | 6.4 | 9.7 | 0.00 | 0.00 | 0.00 |